VIASAT-3 F2

Last updated on Sun Apr 12 2026 00:02:57 GMT+0000 (Coordinated Universal Time)

1 66454U 25261A 26101.50500398 -.00000232 00000+0 00000+0 0 9997 2 66454 0.0237 270.1844 0003256 178.3737 213.9741 1.00270292 2111
UTC large
Height (km)
Speed (km/s)
/
Latitude / Longitude
Inclination (degrees)
Orbital Period (minutes)
Azimuth
Elevation
Range (km)
Doppler Factor

Next 0 passes for location: London (51.5072 / 0.1276)

Sorry there are no passes over London.
VIASAT-3 F2